Aérodrome :
LOGIN :

S'inscrire | Disclaimer

   EN    FR    IT 

 










Légende :    VFR   VFR Marginal   IFR   IFR Intensif   IFR Très Intensif
Visi : 
Plafond : 
>= 8 km
>= 3000ft
5 à 8 km
1000 à 3000 ft
1500m à 5 km
500 à 1000 ft
800 à 1500m
200 à 500 ft
< 800m
< 200 ft
Symboles :   Orages  Brouillard  Fortes neiges  Fortes précipitations  Vent > 20 kt
SIGMETs :   Divers  Orages  Givrage  Turbulence  Onde Orograph.  Cendres Volcan.







- Altitude de l'aérodrome : 499 ft
- Code IATA : TLS
- Voir les cartes d'approche


LFBO - Toulouse / Blagnac

DERNIER METAR :
  • 211700Z AUTO 27007KT 9999 FEW046 BKN078 23/13 Q1015 NOSIG

METARs EXPIRÉS :
  • 211630Z AUTO 29006KT 250V330 9999 FEW045 SCT078 24/12 Q1016 NOSIG
  • 211600Z AUTO 28007KT 230V340 9999 FEW046 BKN078 24/13 Q1016 NOSIG
  • 211530Z AUTO 26007KT 220V310 9999 FEW046 SCT054 BKN074 24/13 Q1016 NOSIG
  • 211500Z AUTO 28007KT 250V330 9999 FEW045 BKN074 24/14 Q1016 NOSIG
  • 211430Z AUTO 31010KT 270V330 9999 FEW043 BKN070 23/13 Q1016 NOSIG

TAF TAF LFBO
Valide du 21 à 12h jusqu'au 22 à 18h UTC


211100Z 2112/2218 31006KT 9999 BKN035 BKN045
BECMG 2115/2117 CAVOK
ATIS : +33 5 62 74 66 36
Pas de NOTAMs connus pour ce terrain.



MET'MAP, la Météo Aéronautique d'un coup d'oeil ! - Copyright ORBIFLY Décembre 2007 - Disclaimer

ORBIFLY MET'MAP TEAM :

Programmation & Développement : Alexandra Zaïnal
Conception & Développement : Baudouin d'Aumeries
Co-Programmation & Développement : Marc-Olivier Méhu
Soutien technique & logistique : Manuel Goepfert

Contact : metmap@orbifly.com




SOURCES & CREDITS :

   NOAA